Regional Weather Roundup
Issued by NWS Little Rock, AR

Home | Current Version | Previous Version | Graphics & Text | Print | Product List | Glossary On
Versions: 1 2 3 4 5 6 7 8 9 10 11 12 13 14 15 16 17 18 19 20 21 22 23 24 25 26 27 28 29 30 31
000
ASUS44 KLZK 271105
RWRLZK

WEATHER ROUNDUP FOR ARKANSAS
NATIONAL WEATHER SERVICE LITTLE ROCK AR
600 AM CDT TUE JUN 27 2017

NOTE: "FAIR" INDICATES FEW OR NO CLOUDS BELOW 12,000 FEET WITH NO
SIGNIFICANT WEATHER AND/OR OBSTRUCTIONS TO VISIBILITY.

ARZ001-003-010-029-271200-
NORTHWEST ARKANSAS

CITY           SKY/WX    TMP DP  RH WIND       PRES   REMARKS
FAYETTEVILLE   CLOUDY    60  59  96 S5        30.11S
FORT SMITH     PTCLDY    67  63  87 CALM      30.08S
HARRISON       CLOUDY    61  59  93 SE6       30.14S
BENTONVILLE    PTCLDY    63  57  82 CALM      30.12S
ROGERS         CLEAR     63  61  93 E3        30.12S
SILOAM SPGS    CLEAR     63  61  94 SE6       30.10F
HIGHFILL       CLEAR     64  61  90 CALM      30.11S
SPRINGDALE     CLEAR     64  63  94 SE3       30.12
$$

ARZ004-005-016-271200-
NORTH CENTRAL ARKANSAS

CITY           SKY/WX    TMP DP  RH WIND       PRES   REMARKS
BATESVILLE     CLOUDY    63  59  88 CALM      30.14S
FLIPPIN        CLOUDY    63  55  77 CALM      30.12R
MTN HOME       LGT RAIN  61  59  93 SE6       30.14R
$$

ARZ040-041-271200-
WEST CENTRAL ARKANSAS

CITY           SKY/WX    TMP DP  RH WIND       PRES   REMARKS
MENA           CLOUDY    64  63  94 CALM      30.11S
MOUNT IDA      CLEAR     62  60  93 CALM      30.08S FOG
$$

ARZ009-017-025-026-028-271200-
NORTHEAST ARKANSAS

CITY           SKY/WX    TMP DP  RH WIND       PRES   REMARKS
CORNING        FAIR      63  63 100 NE5       30.16S
JONESBORO      CLOUDY    65  64  97 N6        30.15R
WALNUT RIDGE   CLOUDY    64  59  82 NE8       30.14F
BLYTHEVILLE    CLOUDY    64  64 100 NE9       30.14S
$$

ARZ022-023-033-042-044-271200-
CENTRAL ARKANSAS

CITY           SKY/WX    TMP DP  RH WIND       PRES   REMARKS
LITTLE ROCK    MOCLDY    63  63 100 NE7       30.11R
N LITTLE ROCK    N/A     63  60  90 NE6       30.10R
CONWAY           N/A     64  63  94 N5        30.10R
SEARCY         CLEAR     64  62  93 N3        30.14R
HOT SPRINGS    CLEAR     64  63  96 CALM      30.10R
RUSSELLVILLE   CLOUDY    64  63  96 CALM      30.10R
CLINTON        FAIR      63  61  94 CALM      30.13R
$$

ARZ036-271200-
EAST ARKANSAS

CITY           SKY/WX    TMP DP  RH WIND       PRES   REMARKS
WEST MEMPHIS   CLEAR     66  62  87 NE7       30.11R
$$

ARZ050-053-066-070-073-271200-
SOUTHWEST ARKANSAS

CITY           SKY/WX    TMP DP  RH WIND       PRES   REMARKS
ARKADELPHIA    PTSUNNY   64  63  96 CALM      30.09R
CAMDEN         PTCLDY    63  59  88 CALM      30.07S
TEXARKANA      MOCLDY    66  65  96 CALM      30.06F
EL DORADO      CLEAR     64  63  96 N3        30.07R
DE QUEEN       MOCLDY    65  65 100 CALM      30.06R
$$

ARZ056-057-069-271200-
SOUTHEAST ARKANSAS

CITY           SKY/WX    TMP DP  RH WIND       PRES   REMARKS
PINE BLUFF     PTCLDY    63  62  97 N5        30.09R
STUTTGART      CLEAR    N/A N/A N/A N9        30.11R
MONTICELLO       N/A     64  62  93 CALM      30.07R

$$






USA.gov is the U.S. government's official web portal to all federal, state and local government web resources and services.